Weather History for KVQQ - June, 2014

Change the Weather History Date:

Tuesday, June 3, 2014

  Actual Average (KJAX) Record (KJAX)
Temperature  
Mean Temperature 70 °F 78 °F  
Max Temperature 82 °F 89 °F 100 °F (1985)
Min Temperature 59 °F 68 °F 57 °F (1966)
Degree Days  
Heating Degree Days 0 0  
Month to date heating degree days 0  
Since 1 June heating degree days 0  
Since 1 July heating degree days 1349  
Cooling Degree Days 6 13  
Month to date cooling degree days 39  
Year to date cooling degree days 523  
Since 1 June cooling degree days 39  
Growing Degree Days 20 (Base 50)    
Moisture  
Dew Point 60 °F    
Average Humidity 82    
Maximum Humidity 100    
Minimum Humidity 45    
Precipitation  
Precipitation 0.00 in 0.17 in 5.31 in (1932)
Month to date precipitation 0.50  
Year to date precipitation 16.06  
Snow  
Snow 0.00 in 0.00 in 0.00 in (2002)
Month to date snowfall 0.0  
Since 1 June snowfall 0.0  
Since 1 July snowfall T  
Snow Depth -    
Sea Level Pressure  
Sea Level Pressure 30.09 in    
Wind  
Wind Speed 1 mph (East)    
Max Wind Speed 12 mph    
Max Gust Speed -    
Visibility 9 miles    
Events      
T = Trace of Precipitation, MM = Missing Value Source: NWS Daily Summary

Daily Weather History Graph

Daily Weather History Graph

Search for Another Location

Airport or City:

Trip Planner

Search our weather history database for the weather conditions in past years. The results will help you decide how hot, cold, wet, or windy it might be!

Date:

Astronomy

Jun. 03, 2014 Rise Set
Actual Time 6:25 AM EDT 8:25 PM EDT
Civil Twilight 5:58 AM EDT 8:52 PM EDT
Nautical Twilight 5:25 AM EDT 9:25 PM EDT
Astronomical Twilight 4:50 AM EDT 10:01 PM EDT
Moon 11:33 AM EDT (6/3) 12:06 AM EDT (6/3)
Length of Visible Light 14h 54m
Length of Day
13h 59m
Waxing Crescent, 30% of the Moon is Illuminated
Jun 3
Waxing Crescent
Jun 5
First Quarter
Jun 13
Full
Jun 19
Last Quarter
Jun 27
New

Hourly Weather History & Observations

Time (EDT) Temp. Heat Index Dew Point Humidity Pressure Visibility Wind Dir Wind Speed Gust Speed Precip Events Conditions
12:15 AM 62.6 °F - 60.8 °F 94% 30.13 in 8.0 mi Calm Calm - N/A   Clear
12:35 AM 62.6 °F - 62.6 °F 100% 30.13 in 9.0 mi Calm Calm - N/A   Clear
12:55 AM 62.6 °F - 62.6 °F 100% 30.13 in 7.0 mi Calm Calm - N/A   Clear
1:15 AM 62.6 °F - 60.8 °F 94% 30.13 in 5.0 mi Calm Calm - N/A   Clear
1:35 AM 62.6 °F - 60.8 °F 94% 30.12 in 5.0 mi Calm Calm - N/A   Clear
1:55 AM 60.8 °F - 60.8 °F 100% 30.12 in 6.0 mi Calm Calm - N/A   Clear
2:15 AM 60.8 °F - 59.0 °F 94% 30.11 in 5.0 mi Calm Calm - N/A   Clear
2:35 AM 60.8 °F - 60.8 °F 100% 30.11 in 8.0 mi Calm Calm - N/A   Clear
2:55 AM 59.0 °F - 59.0 °F 100% 30.11 in 8.0 mi Calm Calm - N/A   Clear
3:15 AM 59.0 °F - 59.0 °F 100% 30.11 in 7.0 mi Calm Calm - N/A   Clear
3:35 AM 59.0 °F - 59.0 °F 100% 30.10 in 7.0 mi Calm Calm - N/A   Clear
3:55 AM 59.0 °F - 59.0 °F 100% 30.10 in 7.0 mi Calm Calm - N/A   Clear
4:15 AM 59.0 °F - 59.0 °F 100% 30.10 in 8.0 mi Calm Calm - N/A   Clear
4:35 AM 59.0 °F - 59.0 °F 100% 30.10 in 5.0 mi Calm Calm - N/A   Clear
4:55 AM 59.0 °F - 59.0 °F 100% 30.10 in 3.0 mi Calm Calm - N/A   Clear
5:15 AM 59.0 °F - 57.2 °F 94% 30.10 in 8.0 mi Calm Calm - N/A   Clear
5:35 AM 59.0 °F - 59.0 °F 100% 30.11 in 8.0 mi Calm Calm - N/A   Clear
5:55 AM 59.0 °F - 59.0 °F 100% 30.11 in 8.0 mi Calm Calm - N/A   Clear
6:15 AM 59.0 °F - 57.2 °F 94% 30.11 in 10.0 mi Calm Calm - N/A   Clear
6:50 AM 59.0 °F - 59.0 °F 100% 30.11 in 10.0 mi Calm Calm - N/A   Clear
7:50 AM 68.0 °F - 64.4 °F 88% 30.13 in 10.0 mi Calm Calm - N/A   Clear
8:50 AM 73.4 °F - 64.4 °F 73% 30.13 in 10.0 mi Calm Calm - N/A   Clear
9:50 AM 77.0 °F - 60.8 °F 57% 30.13 in 10.0 mi East 8.1 mph - N/A   Scattered Clouds
10:50 AM 78.8 °F - 62.6 °F 57% 30.12 in 10.0 mi ENE 11.5 mph - N/A   Scattered Clouds
11:50 AM 80.6 °F 81.1 °F 59.0 °F 48% 30.12 in 10.0 mi ESE 11.5 mph - N/A   Scattered Clouds
12:50 PM 82.4 °F 82.5 °F 59.0 °F 45% 30.10 in 10.0 mi ESE 11.5 mph - N/A   Scattered Clouds
1:50 PM 80.6 °F 81.1 °F 59.0 °F 48% 30.09 in 10.0 mi ESE 9.2 mph - N/A   Partly Cloudy
2:50 PM 82.4 °F 82.5 °F 59.0 °F 45% 30.07 in 10.0 mi ENE 11.5 mph - N/A   Partly Cloudy
4:50 PM 82.4 °F 82.5 °F 59.0 °F 45% 30.04 in 10.0 mi East 11.5 mph - N/A   Partly Cloudy
5:50 PM 80.6 °F 81.1 °F 59.0 °F 48% 30.04 in 10.0 mi East 9.2 mph - N/A   Partly Cloudy
6:50 PM 78.8 °F - 60.8 °F 54% 30.02 in 10.0 mi East 5.8 mph - N/A   Clear
7:50 PM 77.0 °F - 62.6 °F 61% 30.03 in 10.0 mi East 4.6 mph - N/A   Clear
8:15 PM 75.2 °F - 59.0 °F 57% 30.03 in 10.0 mi ESE 3.5 mph - N/A   Clear
8:35 PM 73.4 °F - 60.8 °F 65% 30.04 in 10.0 mi Calm Calm - N/A   Clear
9:15 PM 71.6 °F - 60.8 °F 69% 30.04 in 10.0 mi Calm Calm - N/A   Clear
9:35 PM 68.0 °F - 62.6 °F 83% 30.04 in 10.0 mi Calm Calm - N/A   Clear
10:15 PM 66.2 °F - 62.6 °F 88% 30.05 in 10.0 mi Calm Calm - N/A   Clear
10:35 PM 64.4 °F - 62.6 °F 94% 30.05 in 10.0 mi Calm Calm - N/A   Clear
10:55 PM 64.4 °F - 60.8 °F 88% 30.05 in 10.0 mi Calm Calm - N/A   Clear
11:15 PM 64.4 °F - 60.8 °F 88% 30.04 in 10.0 mi Calm Calm - N/A   Clear
11:35 PM 62.6 °F - 60.8 °F 94% 30.04 in 10.0 mi Calm Calm - N/A   Clear
11:55 PM 62.6 °F - 60.8 °F 94% 30.04 in 10.0 mi Calm Calm - N/A   Clear